St. Paul, MN

4:50 AM CDT on June 28, 2017 (GMT -0500)
Saint Paul Downtown-Holman

Weather History for KSTP - September, 2012

Change the Weather History Date:

Tuesday, September 4, 2012

  Actual Average Record
Temperature  
Mean Temperature 80 °F -  
Max Temperature 91 °F 77 °F 91 °F (2007)
Min Temperature 68 °F 56 °F 48 °F (2010)
Cooling Degree Days 14    
Growing Degree Days 30 (Base 50)    
Moisture  
Dew Point 61 °F    
Average Humidity 66    
Maximum Humidity 100    
Minimum Humidity 20    
Precipitation  
Precipitation 0.00 in - - ()
Sea Level Pressure  
Sea Level Pressure 29.81 in    
Wind  
Wind Speed 4 mph (SSW)    
Max Wind Speed 15 mph    
Max Gust Speed -    
Visibility 8 miles    
Events      
Averages and records for this station are not official NWS values.
T = Trace of Precipitation, MM = Missing Value Source: NWS Daily Summary

Daily Weather History Graph

Daily Weather History Graph

Search for Another Location

Airport or City:

Trip Planner

Search our weather history database for the weather conditions in past years. The results will help you decide how hot, cold, wet, or windy it might be!

Date:

Astronomy

Sep. 04, 2012 Rise Set
Actual Time 6:38 AM CDT 7:42 PM CDT
Civil Twilight 6:08 AM CDT 8:12 PM CDT
Nautical Twilight 5:32 AM CDT 8:48 PM CDT
Astronomical Twilight 4:54 AM CDT 9:26 PM CDT
Moon 9:21 PM CDT (9/4) 10:59 AM CDT (9/4)
Length of Visible Light 14h 04m
Length of Day
13h 04m
Waning Gibbous, 83% of the Moon is Illuminated
Sep 4
Waning Gibbous
Sep 8
Last Quarter
Sep 15
New
Sep 22
First Quarter
Sep 29
Full

Hourly Weather History & Observations

Time (CDT) Temp. Heat Index Dew Point Humidity Pressure Visibility Wind Dir Wind Speed Gust Speed Precip Events Conditions
12:53 AM 70.0 °F - 64.9 °F 84% 29.88 in 9.0 mi Calm Calm - N/A   Clear
1:53 AM 70.0 °F - 66.9 °F 90% 29.86 in 9.0 mi Calm Calm - N/A   Clear
2:53 AM 71.1 °F - 68.0 °F 90% 29.85 in 7.0 mi SE 3.5 mph - N/A   Clear
3:53 AM 70.0 °F - 69.1 °F 97% 29.83 in 5.0 mi SE 5.8 mph - N/A   Clear
4:53 AM 69.1 °F - 66.9 °F 93% 29.82 in 5.0 mi SE 6.9 mph - N/A   Clear
5:53 AM 69.1 °F - 66.9 °F 93% 29.82 in 10.0 mi Calm Calm - N/A   Clear
6:53 AM 68.0 °F - 66.9 °F 96% 29.84 in 3.0 mi Calm Calm - N/A   Clear
7:29 AM 69.8 °F - 68.0 °F 94% 29.87 in 4.0 mi Calm Calm - N/A   Scattered Clouds
7:38 AM 69.8 °F - 68.0 °F 94% 29.87 in 4.0 mi SE 8.1 mph - N/A   Mostly Cloudy
7:53 AM 70.0 °F - 69.1 °F 97% 29.84 in 4.0 mi SE 5.8 mph - N/A   Mostly Cloudy
8:00 AM 69.8 °F - 69.8 °F 100% 29.86 in 2.5 mi SE 5.8 mph - N/A   Scattered Clouds
8:07 AM 71.6 °F - 69.8 °F 94% 29.86 in 4.0 mi SE 6.9 mph - N/A   Scattered Clouds
8:53 AM 73.9 °F - 68.0 °F 82% 29.83 in 7.0 mi SE 6.9 mph - N/A   Clear
9:53 AM 79.0 °F - 64.9 °F 62% 29.83 in 10.0 mi SE 5.8 mph - N/A   Clear
10:53 AM 82.0 °F 83.8 °F 64.9 °F 56% 29.82 in 10.0 mi Variable 4.6 mph - N/A   Clear
11:53 AM 86.0 °F 87.3 °F 64.0 °F 48% 29.81 in 10.0 mi WSW 10.4 mph - N/A   Clear
12:53 PM 88.0 °F 88.4 °F 62.1 °F 42% 29.78 in 10.0 mi WSW 9.2 mph - N/A   Clear
1:53 PM 91.0 °F 91.5 °F 62.1 °F 38% 29.77 in 10.0 mi SW 11.5 mph - N/A   Clear
2:53 PM 91.9 °F 90.0 °F 55.0 °F 29% 29.76 in 10.0 mi SW 15.0 mph - N/A   Clear
3:53 PM 91.0 °F 88.9 °F 55.0 °F 29% 29.76 in 10.0 mi West 13.8 mph - N/A   Clear
4:53 PM 89.6 °F - 42.8 °F 20% 29.77 in 10.0 mi West 11.5 mph - N/A   Clear
5:53 PM 87.1 °F - 48.0 °F 26% 29.73 in 10.0 mi WNW 13.8 mph - N/A   Clear
6:53 PM 84.9 °F - 42.1 °F 22% 29.75 in 10.0 mi WNW 12.7 mph - N/A   Clear
7:53 PM 79.0 °F - 45.0 °F 30% 29.76 in 10.0 mi West 3.5 mph - N/A   Clear
8:53 PM 71.1 °F - 54.0 °F 55% 29.76 in 10.0 mi Calm Calm - 0.00 in   Clear
9:53 PM 69.8 °F - 51.8 °F 53% 29.76 in 10.0 mi Calm Calm - N/A   Clear
10:53 PM 69.1 °F - 55.9 °F 63% 29.77 in 10.0 mi Calm Calm - N/A   Clear
11:53 PM 70.0 °F - 55.9 °F 61% 29.78 in 10.0 mi Calm Calm - N/A   Clear